Location: *
(23.5860°S, 65.4036°W)
Time: 04:14:19
(UTC+00:00)

YAOGAN 1 - Pass Details

Date: 25 August 2019
Orbit: 619 x 621 km, 98.0° (Epoch: 21 September)

Event Time Altitude Azimuth Distance (km) Brightness Sun altitude
Rises 23:28:46 0° 169° (S) 2,921 5.9 -19.0°
Reaches altitude 10° 23:30:58 10° 169° (SSE) 2,008 5.0 -19.5°
Maximum altitude 23:35:21 89° 250° (WSW) 630 2.5 -20.5°
Drops below altitude 10° 23:39:40 10° 347° (NNW) 1,983 5.3 -21.5°
Sets 23:41:50 0° 347° (NNW) 2,881 6.2 -22.0°
